User: anonymous   Login
Location: Caltech
(34.1382°N, 118.1253°W)
Time: 15:04:57
(UTC-08:00)
Language:

Cosmos 676 Rocket - Orbit

View from above orbital plane
View from above orbital plane
View from above satellite
View from above satellite

Ground track
Ground track

The orbit data is extracted from the following two-line orbital elements,

1 07434U 74071B   14330.87051154  .00000421  00000-0  15258-3 0  3691
2 07434 074.0469 127.7176 0021889 269.6023 255.7994 14.36338984102695
Epoch (UTC): 26 November 2014 20:53:32
Eccentricity: 0.0021889
inclination: 74.0469°
perigee height: 755 km
apogee height: 786 km
right ascension of ascending node: 127.7176°
argument of perigee: 269.6023°
revolutions per day: 14.36338984
mean anomaly at epoch: 255.7994°
orbit number at epoch: 10269

The dashed part of the orbit path shows where the satellite is in the earth's shadow,  

DLR